FW6020 Weather Reports


time (UTC)temp
C
wind
direction
speed
KPH
gust
KPH
rain 1hr
cm
rain 24hr
cm
rain mn
cm
humidity
%
barometer
mb
20260510100917 10 158 9.7 19.3 0.00 0.00 0.00 72 1010.2
20260510095916 10 158 8.0 19.3 0.00 0.00 0.00 72 1009.7
20260510094917 10 135 6.4 9.7 0.00 0.00 0.00 72 1008.7
20260510093916 10 158 12.9 17.7 0.00 0.00 0.00 72 1008.9
20260510092917 10 135 12.9 19.3 0.00 0.00 0.00 71 1008.8
20260510091957 10 135 12.9 17.7 0.00 0.00 0.00 71 1008.9
20260510090937 10 158 9.7 17.7 0.00 0.00 0.00 71 1009.1
20260510085917 10 135 6.4 11.3 0.00 0.00 0.00 70 1008.7
20260510084917 10 135 8.0 12.9 0.00 0.00 0.00 69 1008.6
20260510083916 10 158 3.2 6.4 0.00 0.00 0.00 69 1008.6
20260510082916 10 158 8.0 14.5 0.00 0.00 0.00 69 1008.7
20260510081917 10 158 6.4 9.7 0.00 0.00 0.00 69 1008.8
20260510080917 11 158 6.4 11.3 0.00 0.00 0.00 68 1009.0
20260510075917 11 158 11.3 22.5 0.00 0.00 0.00 68 1009.0
20260510074917 11 113 12.9 22.5 0.00 0.00 0.00 67 1008.9
20260510073916 11 158 9.7 16.1 0.00 0.00 0.00 67 1009.0
20260510072917 11 158 8.0 11.3 0.00 0.00 0.00 67 1009.0
20260510071937 11 113 9.7 17.7 0.00 0.00 0.00 67 1008.8
20260510070917 11 158 12.9 19.3 0.00 0.00 0.00 67 1008.7
20260510065916 11 113 9.7 17.7 0.00 0.00 0.00 67 1008.8
20260510064918 11 113 11.3 17.7 0.00 0.00 0.00 67 1008.9
20260510063916 11 113 6.4 14.5 0.00 0.00 0.00 66 1008.6
20260510062916 11 135 9.7 17.7 0.00 0.00 0.00 66 1008.8
20260510061917 11 135 8.0 14.5 0.00 0.00 0.00 65 1008.8
20260510060936 11 158 8.0 19.3 0.00 0.00 0.00 65 1008.8
20260510055916 11 135 8.0 16.1 0.00 0.00 0.00 65 1008.6
20260510054916 11 158 9.7 16.1 0.00 0.00 0.00 65 1008.8
20260510053916 11 158 12.9 17.7 0.00 0.00 0.00 65 1008.9
20260510052916 11 158 8.0 14.5 0.00 0.00 0.00 65 1008.9
20260510051916 11 158 8.0 14.5 0.00 0.00 0.00 65 1008.9
20260510050916 11 158 11.3 17.7 0.00 0.00 0.00 65 1008.8
20260510045916 11 158 12.9 20.9 0.00 0.00 0.00 64 1008.8
20260510044917 11 135 9.7 20.9 0.00 0.00 0.00 64 1008.5
20260510043916 11 158 12.9 20.9 0.00 0.00 0.00 64 1008.5
20260510042916 11 135 6.4 11.3 0.00 0.00 0.00 65 1008.6
20260510041916 10 158 9.7 16.1 0.00 0.00 0.00 66 1008.5
20260510040916 10 135 8.0 14.5 0.00 0.00 0.00 66 1008.3
20260510035916 10 90 4.8 19.3 0.00 0.00 0.00 67 1008.2
20260510034936 10 135 8.0 14.5 0.00 0.00 0.00 68 1008.1
20260510033917 10 135 9.7 19.3 0.00 0.00 0.00 67 1008.4
20260510032916 10 135 4.8 14.5 0.00 0.00 0.00 67 1008.6
20260510031916 10 113 11.3 17.7 0.00 0.00 0.00 67 1008.7
20260510030936 10 113 11.3 19.3 0.00 0.00 0.00 68 1008.7
20260510025916 10 158 6.4 11.3 0.00 0.00 0.00 68 1008.7
20260510024916 10 135 4.8 12.9 0.00 0.00 0.00 68 1009.0
20260510023956 10 135 9.7 14.5 0.00 0.00 0.00 68 1009.1
20260510022916 10 135 8.0 16.1 0.00 0.00 0.00 68 1009.2
20260510021936 10 158 6.4 17.7 0.00 0.00 0.00 67 1009.2
20260510020916 10 158 6.4 8.0 0.00 0.00 0.00 67 1009.1
20260510015916 10 158 8.0 12.9 0.00 0.00 0.00 68 1009.0
20260510014936 10 135 4.8 9.7 0.00 0.00 0.00 67 1009.1
20260510013916 10 135 6.4 12.9 0.00 0.00 0.00 67 1009.2
20260510012916 10 135 8.0 14.5 0.00 0.00 0.00 67 1009.2
20260510011916 10 113 4.8 9.7 0.00 0.00 0.00 67 1009.3
20260510010916 10 113 3.2 6.4 0.00 0.00 0.00 67 1009.2
20260510005916 10 90 9.7 24.1 0.00 0.00 0.00 68 1009.3
20260510004916 10 135 6.4 14.5 0.00 0.00 0.00 68 1009.5
20260510003916 10 158 6.4 11.3 0.00 0.00 0.00 68 1009.4
20260510002916 10 135 8.0 14.5 0.00 0.00 0.00 68 1009.6
20260510001916 10 135 9.7 17.7 0.00 0.00 0.00 68 1009.4
20260510000916 10 90 8.0 14.5 0.00 0.00 0.00 68 1009.5
20260509235936 10 203 9.7 16.1 0.00 0.00 0.00 68 1009.4
20260509234936 10 135 9.7 16.1 0.00 0.00 0.00 67 1009.4
20260509233916 11 158 8.0 14.5 0.00 0.00 0.00 66 1009.5
20260509232936 11 158 6.4 14.5 0.00 0.00 0.00 66 1009.4
20260509231936 11 90 9.7 16.1 0.00 0.00 0.00 64 1009.6
20260509230936 12 158 4.8 9.7 0.00 0.00 0.00 64 1009.4
20260509225915 12 90 9.7 19.3 0.00 0.00 0.00 63 1009.4
20260509224916 12 135 8.0 11.3 0.00 0.00 0.00 61 1009.4
20260509223956 12 135 4.8 8.0 0.00 0.00 0.00 62 1009.4
20260509222915 12 158 8.0 14.5 0.00 0.00 0.00 61 1009.7
20260509221916 12 158 11.3 20.9 0.00 0.00 0.00 60 1009.6
20260509220915 13 113 9.7 17.7 0.00 0.00 0.00 59 1010.0
20260509215915 13 135 12.9 29.0 0.00 0.00 0.00 60 1009.8
20260509214915 13 158 14.5 22.5 0.00 0.00 0.00 59 1009.7
20260509213915 13 158 17.7 24.1 0.00 0.00 0.00 58 1009.6
20260509212916 12 135 6.4 16.1 0.00 0.00 0.00 61 1009.6
20260509211915 12 113 12.9 20.9 0.00 0.00 0.00 61 1010.2
20260509210915 12 113 9.7 19.3 0.00 0.00 0.00 61 1010.1
20260509205916 12 135 11.3 22.5 0.00 0.00 0.00 60 1010.2
20260509204916 12 158 11.3 20.9 0.00 0.00 0.00 60 1010.2
20260509203916 13 90 11.3 17.7 0.00 0.00 0.00 59 1010.2
20260509202915 13 135 17.7 30.6 0.00 0.00 0.00 59 1010.4
20260509201916 13 158 16.1 24.1 0.00 0.00 0.00 57 1010.5
20260509200916 13 113 4.8 11.3 0.00 0.00 0.00 58 1010.4
20260509195916 13 158 11.3 17.7 0.00 0.00 0.00 56 1010.4
20260509194916 12 158 9.7 17.7 0.00 0.00 0.00 57 1010.2
20260509193917 12 135 11.3 20.9 0.00 0.00 0.00 57 1010.3
20260509192916 13 158 11.3 19.3 0.00 0.00 0.00 55 1010.3
20260509191915 13 135 6.4 14.5 0.00 0.00 0.00 56 1010.4
20260509190916 13 158 12.9 17.7 0.00 0.00 0.00 54 1010.5
20260509185916 13 113 8.0 12.9 0.00 0.00 0.00 54 1010.5
20260509184916 13 158 9.7 19.3 0.00 0.00 0.00 52 1010.5
20260509183916 13 158 16.1 22.5 0.00 0.00 0.00 52 1010.6
20260509182939 12 158 17.7 29.0 0.00 0.00 0.00 52 1010.9
20260509181917 12 135 14.5 24.1 0.00 0.00 0.00 52 1011.1
20260509180918 12 135 12.9 22.5 0.00 0.00 0.00 52 1011.4
20260509175938 13 135 12.9 19.3 0.00 0.00 0.00 49 1011.3
20260509174917 13 135 14.5 22.5 0.00 0.00 0.00 45 1011.5
20260509173917 13 135 16.1 25.7 0.00 0.00 0.00 44 1011.5
20260509172917 13 113 16.1 29.0 0.00 0.00 0.00 44 1011.5
20260509171937 13 158 14.5 22.5 0.00 0.00 0.00 50 1011.5
20260509170937 13 158 17.7 25.7 0.00 0.00 0.00 48 1011.5
20260509165917 13 158 8.0 32.2 0.00 0.00 0.00 47 1011.5
20260509164917 13 135 11.3 24.1 0.00 0.00 0.00 43 1011.8
20260509163917 13 180 11.3 25.7 0.00 0.00 0.00 44 1011.8
20260509162917 13 158 12.9 20.9 0.00 0.00 0.00 36 1011.9
20260509161917 13 158 11.3 20.9 0.00 0.00 0.00 37 1012.1
20260509160917 15 135 9.7 20.9 0.00 0.00 0.00 36 1012.2
20260509155958 15 158 8.0 12.9 0.00 0.00 0.00 37 1012.5
20260509154937 14 158 11.3 20.9 0.00 0.00 0.00 35 1012.6
20260509153917 14 113 11.3 19.3 0.00 0.00 0.00 35 1012.8
20260509152917 13 158 6.4 12.9 0.00 0.00 0.00 42 1012.9
20260509151917 13 158 11.3 17.7 0.00 0.00 0.00 40 1013.1
20260509150917 13 180 9.7 16.1 0.00 0.00 0.00 39 1013.2
20260509145937 13 113 11.3 19.3 0.00 0.00 0.00 40 1013.4
20260509144917 13 158 4.8 11.3 0.00 0.00 0.00 41 1013.5
20260509143917 12 158 6.4 14.5 0.00 0.00 0.00 40 1013.5
20260509142917 12 113 8.0 11.3 0.00 0.00 0.00 42 1013.5
20260509141917 12 158 9.7 17.7 0.00 0.00 0.00 42 1013.6
20260509140917 12 158 11.3 19.3 0.00 0.00 0.00 40 1013.5
20260509135937 11 158 6.4 12.9 0.00 0.00 0.00 45 1013.5
20260509134917 11 158 6.4 12.9 0.00 0.00 0.00 42 1013.6
20260509133917 11 158 4.8 16.1 0.00 0.00 0.00 44 1013.5
20260509132937 11 158 11.3 17.7 0.00 0.00 0.00 45 1013.7
20260509131917 10 113 9.7 19.3 0.00 0.00 0.00 47 1013.7
20260509130937 10 158 8.0 14.5 0.00 0.00 0.00 49 1013.8
20260509125917 9 158 9.7 17.7 0.00 0.00 0.00 48 1013.9
20260509124917 9 135 9.7 20.9 0.00 0.00 0.00 51 1013.9
20260509123917 8 158 11.3 14.5 0.00 0.00 0.00 50 1014.0
20260509122917 8 158 8.0 17.7 0.00 0.00 0.00 50 1014.0
20260509121917 8 158 8.0 11.3 0.00 0.00 0.00 53 1014.1
20260509120917 8 158 9.7 16.1 0.00 0.00 0.00 53 1014.0
20260509115917 7 158 11.3 14.5 0.00 0.00 0.00 54 1014.2
20260509114917 7 158 4.8 8.0 0.00 0.00 0.00 55 1014.1
20260509113917 7 135 4.8 9.7 0.00 0.00 0.00 56 1014.2
20260509112937 7 158 6.4 12.9 0.00 0.00 0.00 56 1014.1
20260509111917 6 158 6.4 9.7 0.00 0.00 0.00 57 1014.1
20260509110917 6 158 6.4 9.7 0.00 0.00 0.00 58 1014.0
20260509105917 6 158 8.0 12.9 0.00 0.00 0.00 60 1014.1
20260509104917 5 135 1.6 3.2 0.00 0.00 0.00 61 1014.1
20260509103917 5 158 1.6 4.8 0.00 0.00 0.00 63 1014.0
20260509102917 5 0.0 3.2 0.00 0.00 0.00 64 1013.9
20260509101917 4 135 3.2 4.8 0.00 0.00 0.00 65 1013.8